Temperature
7 8 9 9 9 10 10 10 10 11 11 11 12 12 12 12 13 13 13 13 13 14 14 14 14 14 14 14 14 15 15 15 16 16 16 16 16 16 16 17 17 17 17
7 8 9 9 9 9 10 10 10 10 10 10 11 11 12 12 12 12 12 13 13 13 13 13 14 14 14 14 14 14 14 15 15 16 16 16 16 16 16 16 16 16 17
8 8 9 9 9 9 9 9 9 9 9 9 10 10 10 11 11 12 12 12 12 12 12 13 13 13 13 14 14 14 14 14 15 15 15 16 16 16 16 16 16 16 16
8 8 9 9 9 9 9 9 9 9 9 9 9 9 9 9 10 10 11 11 11 11 11 12 12 13 13 13 13 13 13 13 14 14 15 15 15 16 16 16 16 16 16
8 8 9 9 9 9 9 8 8 8 7 7 7 7 7 7 8 8 9 9 10 10 10 10 11 12 12 12 13 13 13 13 13 14 14 15 15 15 15 16 16 16 16
8 8 9 9 9 8 7 7 7 6 6 6 5 5 5 6 6 6 7 7 7 7 8 9 9 10 11 12 12 12 13 13 13 13 13 14 14 15 15 15 16 16 16
8 8 8 8 8 7 6 6 6 5 5 5 5 4 5 5 5 5 5 6 6 6 6 7 7 8 9 10 11 12 12 13 13 13 13 13 14 14 15 15 15 16 16
8 8 8 7 7 6 6 5 5 4 4 4 4 4 5 5 4 4 4 4 4 5 5 5 6 6 7 8 9 10 11 12 12 13 13 13 13 13 14 14 15 15 16
7 7 7 6 6 5 5 5 4 4 3 4 3 3 4 4 4 4 4 4 4 4 4 4 4 5 6 7 8 8 9 10 11 12 12 13 13 13 13 14 14 15 15
7 6 6 5 5 4 4 4 3 3 3 3 3 3 3 3 3 3 3 3 3 3 3 3 4 4 4 5 6 7 8 9 10 10 11 12 12 12 13 13 14 14 15
6 6 5 4 4 3 3 3 3 3 3 3 3 3 3 3 3 3 2 2 2 2 3 3 3 3 4 4 5 6 6 7 8 9 10 11 11 12 12 13 13 14 14
5 4 4 4 3 3 3 3 3 2 2 2 2 2 2 2 2 2 2 2 2 2 2 2 2 2 3 3 4 5 5 6 7 8 9 10 10 11 12 12 13 13 14
3 3 3 3 3 2 2 2 2 2 2 1 1 1 1 1 1 1 1 1 1 1 1 1 1 1 2 2 3 3 4 5 5 6 8 9 9 10 11 12 12 12 13
3 3 3 2 2 2 2 1 1 1 1 1 0 0 -0 0 -0 -0 -1 -1 -1 -1 -0 -0 -0 0 1 1 1 2 3 3 4 5 6 7 8 9 10 11 11 12 13
2 2 2 2 2 1 1 1 1 0 0 -0 -1 -1 -1 -1 -2 -2 -2 -2 -2 -2 -2 -2 -1 -1 -1 -0 0 1 1 2 3 4 4 6 7 8 9 9 10 11 12
2 2 2 2 1 1 1 0 -0 -1 -1 -1 -2 -2 -2 -3 -3 -3 -4 -4 -4 -4 -4 -4 -3 -3 -2 -2 -1 -0 0 1 2 2 3 4 6 7 8 9 9 10 11
1 1 1 1 1 0 0 -0 -1 -1 -2 -2 -3 -3 -3 -4 -4 -5 -5 -5 -5 -5 -5 -5 -5 -4 -4 -3 -2 -1 -1 0 1 1 2 3 4 5 6 8 9 9 10
1 1 1 0 0 0 -0 -1 -1 -2 -3 -3 -4 -4 -5 -5 -6 -6 -6 -7 -7 -7 -6 -6 -6 -5 -5 -4 -4 -3 -2 -1 -0 0 1 2 3 4 5 6 8 9 10
0 0 -0 0 0 -0 -1 -2 -2 -3 -3 -4 -5 -5 -6 -6 -7 -7 -7 -8 -8 -8 -8 -8 -7 -7 -7 -6 -5 -4 -3 -2 -1 -1 -0 0 1 2 3 5 7 8 9
-0 -1 -0 -0 -1 -1 -2 -2 -3 -3 -4 -5 -5 -6 -7 -7 -8 -8 -8 -9 -9 -9 -9 -9 -9 -8 -8 -8 -7 -5 -4 -3 -2 -2 -2 -2 -1 -0 1 2 4 7 8
-1 -1 -1 -1 -1 -2 -2 -3 -3 -4 -5 -6 -6 -7 -8 -8 -8 -9 -9 -10 -10 -10 -10 -10 -10 -10 -9 -9 -8 -7 -4 -4 -4 -5 -4 -3 -3 -2 -1 0 2 5 7
-1 -1 -1 -1 -2 -3 -4 -5 -5 -5 -5 -6 -7 -8 -8 -8 -9 -10 -10 -11 -11 -11 -11 -11 -11 -11 -11 -11 -12 -12 -10 -8 -6 -5 -4 -4 -4 -3 -2 -1 1 2 5
-1 -1 -1 -2 -3 -3 -4 -5 -5 -5 -6 -7 -7 -8 -9 -9 -10 -10 -11 -11 -12 -12 -13 -13 -12 -12 -12 -12 -12 -12 -11 -10 -10 -8 -7 -6 -6 -5 -4 -2 -1 1 3
-1 -1 -2 -3 -3 -4 -5 -5 -6 -7 -7 -8 -9 -9 -9 -10 -10 -11 -12 -12 -13 -13 -13 -13 -13 -13 -13 -13 -13 -12 -12 -11 -11 -9 -9 -8 -7 -6 -5 -3 -2 -0 1
-1 -2 -2 -3 -4 -4 -5 -6 -7 -8 -9 -9 -9 -10 -10 -11 -11 -12 -12 -13 -13 -13 -13 -14 -14 -13 -14 -14 -13 -13 -12 -11 -11 -10 -10 -9 -8 -7 -6 -4 -3 -1 1
-2 -2 -2 -3 -4 -5 -5 -6 -8 -8 -9 -9 -9 -10 -11 -12 -12 -12 -13 -13 -13 -13 -14 -14 -14 -14 -14 -13 -13 -13 -12 -12 -11 -11 -10 -10 -9 -8 -6 -5 -4 -2 -0
Wind_Speed
12 24 27 28 29 29 30 30 30 30 30 30 31 31 31 31 31 31 31 31 31 31 31 30 30 29 29 27 24 21 19 17 16 13 11 10 9 8 6 5 5 5 7
17 23 26 28 28 29 29 29 29 29 29 30 30 30 31 31 31 31 31 31 31 30 30 30 30 30 29 28 27 26 22 19 17 16 13 11 11 10 10 8 8 7 9
19 22 24 27 27 28 28 28 29 29 29 29 29 29 30 31 31 31 31 30 30 30 29 29 29 29 29 29 28 27 26 23 19 17 15 11 10 11 12 11 10 10 11
19 22 24 27 27 27 28 28 28 28 28 28 28 28 29 30 30 31 31 31 30 30 29 29 29 29 29 29 29 28 26 26 24 19 14 11 10 12 13 14 13 12 13
19 23 24 27 27 27 27 28 28 28 27 27 28 28 29 30 30 30 31 31 30 30 29 29 29 29 29 29 29 28 27 26 26 21 16 14 12 14 16 15 15 15 14
18 23 25 27 27 26 26 27 27 28 27 27 27 27 28 29 29 29 30 30 30 30 30 30 29 29 29 29 28 28 28 27 24 19 16 15 13 15 17 18 17 17 17
17 22 24 26 26 26 26 27 27 27 27 26 27 27 28 29 29 29 29 29 29 29 29 30 30 30 29 28 28 28 28 28 22 19 17 15 14 17 19 19 20 19 20
16 20 24 26 26 25 25 26 27 26 26 26 27 28 28 29 30 29 29 29 28 28 28 29 30 30 29 28 28 28 28 27 20 19 19 17 16 18 19 20 21 21 22
17 20 23 24 24 24 23 25 26 25 25 25 26 27 28 30 30 30 30 29 28 28 28 29 29 29 29 28 28 28 29 26 20 19 18 17 19 20 20 20 21 22 22
14 18 21 23 23 24 22 23 25 24 24 23 24 26 26 27 28 28 29 28 28 28 29 29 29 29 29 28 28 29 28 22 21 20 16 17 23 24 22 21 21 22 23
11 15 20 22 22 22 19 19 22 21 21 21 22 24 23 22 23 24 26 27 28 28 28 28 29 28 28 26 27 28 23 18 22 17 17 20 26 26 25 23 21 21 23
11 9 15 18 19 20 18 17 20 18 19 20 20 22 21 20 21 22 24 25 26 27 27 27 28 25 23 21 24 24 18 21 18 17 18 25 26 26 26 25 23 21 22
6 7 11 16 18 19 18 16 17 17 18 18 19 21 21 19 19 20 19 19 21 23 22 24 23 21 20 20 20 20 20 19 17 18 20 26 27 27 27 26 25 23 21
6 7 8 14 16 17 18 16 16 17 16 17 18 20 19 17 18 19 17 18 18 19 20 20 19 21 21 21 20 19 19 18 18 19 20 27 29 29 28 26 25 24 23
6 7 8 11 15 16 16 16 16 17 16 17 17 19 19 17 16 17 17 17 18 19 19 19 19 19 19 20 19 19 19 20 20 20 20 27 29 28 27 26 25 25 24
5 7 9 8 14 15 15 16 15 17 17 17 17 19 19 18 17 17 16 16 17 19 19 19 19 17 16 17 16 19 19 20 19 20 21 24 26 27 26 25 25 24 24
4 6 8 9 14 15 15 15 16 17 17 16 17 18 19 19 19 18 15 14 17 20 20 19 18 15 14 14 13 16 17 17 19 21 21 20 20 23 24 24 23 23 23
4 6 7 10 12 13 15 16 16 17 17 17 17 17 18 19 19 18 15 14 19 19 17 15 10 12 12 12 13 13 13 15 17 20 18 17 17 16 19 22 23 22 21
4 6 6 9 10 13 14 15 16 16 16 17 17 17 18 19 20 19 15 15 19 16 14 13 10 11 13 13 14 14 12 13 14 15 13 15 15 15 14 20 22 21 20
3 5 5 7 9 12 13 13 12 12 14 15 16 17 19 19 20 19 15 16 18 12 8 9 11 11 11 13 15 15 14 15 13 10 10 9 11 12 16 18 18 18 20
4 5 5 6 8 9 6 6 6 7 6 10 14 17 19 19 20 19 15 16 16 9 9 10 11 13 10 10 11 13 12 11 10 5 7 7 7 10 15 17 17 16 15
5 5 6 7 7 9 7 8 6 7 6 10 14 16 18 20 20 19 17 15 15 10 10 10 11 10 11 8 9 11 8 6 4 10 8 7 6 8 11 16 17 17 17
4 5 7 7 7 10 12 10 10 5 4 5 6 7 16 20 21 20 19 18 16 10 10 10 10 11 12 10 6 6 6 6 12 5 6 6 7 8 9 11 14 18 19
4 5 6 7 7 10 12 8 9 9 9 9 7 8 17 20 20 20 19 19 16 13 10 11 9 10 11 11 9 7 9 10 8 7 5 6 9 10 10 12 13 15 17
4 5 6 6 6 9 11 8 8 8 7 9 9 9 9 15 18 20 20 19 16 14 12 11 12 10 9 10 10 10 10 10 11 11 14 10 9 8 8 11 12 11 14
4 5 6 7 7 8 9 8 9 10 11 13 13 11 10 9 13 17 20 18 18 16 13 13 11 11 10 11 10 9 10 8 8 9 12 15 14 10 9 9 11 10 10
Wind_Direction
344 349 359 9 12 15 16 16 17 17 17 17 17 16 16 15 14 12 11 9 7 5 4 2 0 360 359 356 350 340 330 323 317 311 306 301 294 281 258 237 233 228 201
351 354 1 10 13 15 16 17 16 16 16 16 16 15 14 13 12 11 9 7 5 3 2 1 359 357 356 355 354 348 337 323 315 309 302 296 290 283 268 243 235 240 215
0 357 360 12 14 16 17 17 16 16 16 15 15 14 13 11 10 8 7 5 3 1 1 359 357 355 354 352 350 348 345 336 320 311 304 293 282 278 271 256 241 242 223
5 3 2 14 15 16 16 16 16 15 15 14 14 13 12 10 8 7 5 3 2 360 359 357 355 353 352 350 348 346 345 344 337 321 309 294 279 275 270 263 247 240 228
14 11 6 15 15 15 16 16 15 14 14 14 13 13 12 10 8 6 4 1 360 358 357 355 353 351 350 348 346 344 344 342 341 334 318 302 284 277 271 266 255 242 231
21 17 12 16 15 15 15 15 14 14 13 13 12 12 10 8 6 5 3 360 358 356 355 353 351 349 347 346 344 343 342 342 338 332 323 309 293 283 274 265 259 249 236
26 23 18 18 16 14 14 15 13 13 12 12 11 10 9 6 4 3 1 358 356 355 353 351 349 347 346 345 343 342 341 339 336 333 327 316 305 296 280 268 258 253 240
33 28 24 20 17 14 12 14 12 12 12 11 10 9 8 5 3 1 359 356 355 353 352 350 348 346 345 344 343 342 340 338 338 336 327 316 308 302 290 274 263 256 247
40 33 25 21 17 13 11 12 11 12 11 11 10 8 7 4 1 359 357 354 354 352 350 348 346 345 344 343 342 341 340 339 344 332 324 321 318 312 299 286 273 259 253
43 36 26 22 18 11 9 12 11 11 11 11 9 7 5 3 360 357 354 352 352 351 349 346 345 344 343 341 341 340 340 342 338 326 322 318 324 322 313 301 284 267 258
31 30 25 19 18 12 11 13 10 10 9 10 7 5 3 359 355 355 350 350 351 349 348 344 343 343 343 339 338 338 340 336 329 323 319 317 321 320 317 313 302 281 263
10 9 22 17 17 15 12 8 9 4 1 3 3 2 359 356 353 353 348 349 349 347 346 343 342 342 340 335 333 335 332 330 326 322 315 316 316 317 316 313 308 298 277
348 351 12 18 17 16 10 6 8 0 358 358 360 359 356 353 350 347 344 344 344 345 343 340 339 337 333 330 326 325 325 327 320 316 311 311 314 315 312 309 305 299 291
350 347 1 19 17 14 10 2 5 359 355 355 354 357 355 351 346 343 338 336 341 341 337 335 332 329 328 325 321 319 321 319 315 311 308 310 312 310 308 305 303 298 291
349 344 351 18 15 8 6 1 358 354 351 349 350 353 354 349 342 339 333 332 335 337 334 331 329 325 326 323 320 319 316 313 308 307 307 307 307 307 305 303 301 298 291
349 346 344 13 13 6 1 353 351 347 345 346 348 348 350 346 340 337 331 330 335 335 332 328 322 322 323 320 317 316 311 307 305 305 304 304 305 305 305 303 301 297 294
350 338 343 7 8 2 357 350 344 339 338 339 340 343 345 343 339 336 330 330 333 332 330 329 321 325 322 320 316 313 309 306 304 303 302 300 301 305 305 307 306 301 294
349 335 339 358 358 357 353 344 338 333 332 332 334 336 339 339 336 334 327 326 329 329 329 327 326 329 322 320 317 312 307 305 302 299 298 296 298 302 310 317 316 311 300
337 318 322 339 351 351 346 340 333 328 326 328 332 332 335 336 333 329 321 323 327 325 325 326 330 325 321 321 316 310 306 302 295 294 294 295 300 308 322 326 325 324 316
317 307 310 333 346 346 341 335 328 323 322 326 330 331 332 331 330 326 318 324 324 321 320 321 322 321 317 317 315 309 303 293 285 282 288 300 309 325 337 332 329 327 326
298 314 324 340 341 345 340 335 325 321 313 316 329 330 326 325 326 322 320 322 319 316 316 316 320 319 319 322 318 317 301 278 275 295 305 300 310 340 337 334 329 327 326
295 318 334 343 334 337 331 319 307 307 303 316 323 321 324 326 325 326 322 318 314 312 311 313 317 316 319 329 319 320 316 310 340 323 297 296 321 337 332 331 323 325 322
305 328 338 330 329 332 332 326 327 307 296 317 320 314 325 325 323 320 316 315 312 308 307 307 305 313 315 313 303 303 307 312 324 277 280 306 330 323 322 321 321 320 313
324 335 329 327 327 332 336 333 337 342 335 326 321 318 324 325 323 322 320 315 311 309 302 301 311 303 303 306 304 277 281 293 296 306 305 311 307 314 313 317 315 310 307
355 337 331 333 330 333 335 330 327 320 310 316 320 318 319 324 323 321 321 315 311 308 301 296 297 292 293 291 293 291 288 283 272 285 299 307 309 298 296 304 304 301 302
349 339 342 345 336 330 329 325 321 315 317 326 331 328 328 323 320 316 317 311 307 304 299 297 291 287 287 284 283 281 283 283 285 287 290 300 303 302 298 295 295 296 298
Height
1618 1615 1612 1609 1605 1601 1597 1594 1590 1587 1584 1581 1578 1576 1573 1571 1568 1566 1564 1562 1560 1558 1556 1554 1552 1551 1549 1547 1546 1545 1544 1544 1544 1543 1543 1543 1543 1543 1543 1543 1543 1543 1544
1620 1616 1612 1609 1605 1601 1597 1593 1590 1586 1583 1580 1577 1575 1572 1569 1567 1564 1562 1560 1558 1556 1554 1552 1550 1549 1547 1545 1544 1542 1542 1541 1541 1541 1541 1540 1541 1541 1541 1541 1541 1542 1542
1620 1616 1612 1609 1605 1601 1597 1593 1589 1586 1582 1579 1576 1573 1570 1567 1565 1562 1560 1557 1555 1553 1551 1549 1548 1546 1544 1542 1541 1540 1539 1538 1538 1537 1537 1537 1538 1538 1539 1539 1540 1540 1541
1619 1616 1612 1608 1604 1600 1596 1593 1589 1585 1581 1577 1574 1571 1568 1565 1562 1559 1557 1554 1552 1549 1547 1546 1544 1542 1541 1539 1537 1536 1535 1534 1533 1533 1533 1533 1534 1535 1535 1536 1537 1538 1538
1619 1615 1612 1608 1604 1600 1595 1591 1587 1583 1579 1575 1572 1569 1565 1562 1559 1555 1553 1550 1548 1545 1543 1541 1539 1538 1536 1535 1534 1532 1530 1529 1529 1529 1528 1529 1529 1530 1531 1532 1534 1535 1536
1618 1615 1611 1607 1602 1598 1594 1589 1585 1581 1577 1574 1570 1567 1563 1560 1557 1553 1550 1547 1544 1541 1539 1537 1535 1533 1531 1530 1529 1527 1526 1524 1524 1524 1524 1524 1524 1526 1527 1528 1529 1531 1532
1617 1613 1609 1605 1600 1596 1592 1588 1584 1579 1576 1572 1568 1564 1561 1557 1554 1550 1547 1544 1541 1538 1535 1532 1530 1528 1525 1524 1522 1521 1520 1519 1519 1518 1519 1520 1520 1520 1521 1523 1524 1526 1528
1615 1612 1608 1603 1599 1595 1590 1586 1582 1577 1574 1570 1567 1563 1559 1556 1552 1548 1544 1541 1538 1535 1532 1529 1526 1523 1520 1518 1517 1515 1514 1513 1512 1513 1513 1514 1515 1516 1516 1518 1519 1521 1523
1614 1610 1606 1601 1596 1592 1588 1584 1580 1576 1572 1569 1565 1561 1558 1554 1551 1546 1542 1538 1534 1531 1528 1525 1522 1519 1516 1513 1511 1509 1507 1506 1506 1506 1507 1507 1508 1509 1510 1511 1513 1515 1517
1612 1608 1603 1599 1595 1590 1586 1582 1578 1574 1569 1566 1562 1558 1555 1552 1548 1544 1540 1536 1532 1527 1524 1520 1517 1513 1511 1508 1506 1503 1501 1500 1499 1499 1500 1500 1500 1501 1503 1505 1506 1508 1510
1611 1606 1601 1597 1592 1588 1584 1580 1576 1572 1568 1564 1560 1556 1552 1548 1544 1541 1537 1533 1529 1524 1520 1516 1512 1508 1505 1503 1501 1497 1494 1493 1492 1492 1492 1493 1493 1493 1495 1497 1499 1501 1503
1608 1603 1598 1594 1590 1587 1583 1579 1575 1571 1567 1563 1558 1555 1550 1546 1542 1538 1534 1530 1525 1521 1517 1512 1508 1503 1499 1496 1494 1491 1488 1486 1485 1484 1484 1485 1485 1485 1486 1488 1491 1493 1495
1606 1602 1598 1594 1590 1587 1583 1579 1575 1570 1566 1561 1556 1552 1547 1543 1539 1535 1530 1525 1520 1516 1512 1507 1503 1499 1495 1491 1488 1485 1482 1480 1478 1476 1476 1477 1476 1477 1478 1480 1483 1485 1488
1606 1602 1598 1594 1590 1586 1582 1578 1573 1568 1563 1559 1553 1548 1543 1538 1534 1530 1525 1521 1516 1511 1507 1502 1498 1494 1490 1487 1483 1479 1476 1473 1471 1469 1468 1468 1468 1469 1470 1472 1474 1477 1480
1605 1601 1597 1593 1589 1585 1581 1577 1572 1567 1562 1557 1551 1546 1540 1535 1530 1526 1521 1516 1512 1507 1502 1497 1492 1488 1484 1481 1477 1474 1470 1467 1465 1462 1461 1461 1460 1461 1462 1464 1465 1468 1471
1604 1600 1596 1592 1588 1584 1580 1575 1570 1565 1560 1554 1549 1543 1538 1532 1527 1522 1517 1512 1507 1502 1497 1492 1488 1482 1478 1474 1471 1468 1464 1461 1458 1456 1454 1453 1452 1453 1454 1455 1457 1459 1462
1602 1598 1595 1591 1587 1583 1578 1573 1568 1563 1557 1551 1545 1539 1534 1529 1523 1518 1513 1508 1502 1497 1493 1488 1483 1478 1473 1468 1464 1461 1458 1454 1452 1449 1447 1446 1445 1445 1446 1447 1448 1450 1453
1601 1597 1593 1589 1585 1581 1576 1571 1566 1560 1554 1548 1542 1536 1530 1525 1519 1514 1509 1504 1498 1493 1488 1483 1477 1472 1467 1462 1457 1453 1451 1448 1445 1443 1440 1439 1438 1437 1437 1438 1439 1442 1444
1599 1595 1591 1587 1583 1579 1574 1568 1563 1557 1551 1545 1539 1533 1527 1521 1516 1510 1505 1499 1494 1488 1484 1479 1473 1468 1462 1456 1451 1447 1444 1441 1439 1436 1434 1433 1432 1431 1430 1429 1431 1433 1436
1597 1593 1589 1585 1581 1576 1570 1565 1559 1554 1548 1542 1536 1530 1524 1518 1512 1506 1500 1495 1489 1483 1478 1474 1468 1464 1459 1452 1446 1440 1437 1434 1432 1430 1428 1427 1426 1425 1423 1423 1423 1424 1427
1595 1591 1587 1583 1578 1572 1566 1559 1553 1547 1542 1537 1531 1526 1520 1514 1507 1501 1495 1490 1484 1479 1474 1469 1464 1458 1454 1449 1442 1433 1429 1427 1425 1424 1423 1423 1422 1420 1418 1417 1417 1417 1419
1593 1589 1585 1580 1575 1569 1563 1557 1550 1544 1538 1533 1527 1522 1516 1510 1503 1497 1491 1485 1480 1474 1469 1465 1460 1454 1450 1447 1443 1435 1427 1422 1421 1420 1419 1417 1417 1415 1413 1412 1411 1410 1411
1590 1587 1582 1578 1572 1567 1560 1554 1547 1540 1534 1527 1520 1515 1510 1505 1499 1493 1486 1480 1475 1470 1465 1460 1456 1451 1446 1443 1442 1440 1434 1426 1418 1412 1413 1413 1412 1410 1409 1407 1405 1405 1404
1588 1584 1580 1575 1570 1564 1558 1551 1544 1536 1529 1523 1517 1511 1506 1501 1494 1488 1482 1476 1470 1465 1460 1456 1452 1448 1443 1438 1437 1435 1434 1430 1425 1413 1408 1408 1408 1406 1404 1402 1400 1400 1399
1585 1582 1578 1573 1568 1562 1555 1549 1542 1535 1528 1521 1514 1508 1501 1496 1490 1484 1478 1472 1466 1461 1455 1450 1446 1442 1439 1435 1432 1429 1427 1425 1422 1418 1407 1402 1402 1401 1400 1398 1396 1395 1394
1583 1579 1575 1571 1565 1559 1553 1546 1540 1532 1525 1518 1511 1504 1497 1491 1485 1480 1474 1468 1462 1456 1450 1445 1440 1436 1433 1429 1426 1424 1422 1420 1417 1414 1408 1401 1398 1396 1395 1393 1391 1390 1389